Regional Weather Roundup
Issued by NWS Upton, NY

Current Version | Previous Version | Text Only | Print | Product List | Glossary On
Versions: 1 2 3 4 5 6 7 8 9 10 11 12 13 14 15 16 17 18 19 20 21 22 23 24 25 26 27 28 29
000 ASUS41 KOKX 280405 RWROKX REGIONAL WEATHER ROUNDUP NATIONAL WEATHER SERVICE NEW YORK NY 1200 AM EDT SUN AUG 28 2016 NOTE: "FAIR" INDICATES FEW OR NO CLOUDS BELOW 12,000 FEET WITH NO SIGNIFICANT WEATHER AND/OR OBSTRUCTIONS TO VISIBILITY. NYZ071-072-176-178-NJZ106-104-280500- NEW YORK CITY METRO AREA CITY SKY/WX TMP DP RH WIND PRES REMARKS Central Park PTCLDY 76 57 51 CALM 30.25F LaGuardia APRT PTCLDY 78 63 59 S5 30.21F Kennedy INTL PTCLDY 76 62 62 CALM 30.23F Newark/Liberty MOCLDY 75 65 70 CALM 30.22S Bronx Bot Gard N/A 72 55 56 E2 30.23F Wall St Helipt CLEAR 77 64 65 CALM 30.23S Teterboro PTCLDY 75 61 61 CALM 30.21F $$ NYZ177-179-078>081-280500- LONG ISLAND NEW YORK CITY SKY/WX TMP DP RH WIND PRES REMARKS Farmingdale CLEAR 71 66 84 CALM 30.23S MacArthur/ISP PTCLDY 71 66 84 E3 30.23S Shirley CLEAR 66 64 93 CALM 30.24S Riverhead NOT AVBL Westhampton CLEAR 61 58 90 CALM 30.26S Southampton N/A 68 66 94 CALM 30.20S Bridgehampton N/A 66 64 94 CALM 30.22F East Hampton FAIR 62 60 94 CALM 30.23F Montauk N/A 66 64 93 CALM 30.26S $$ NYZ052-065-067-280500- HUDSON VALLEY CITY SKY/WX TMP DP RH WIND PRES REMARKS White Plains PTCLDY 69 62 78 NW5 30.23S Newburgh CLEAR 70 64 83 CALM 30.25R Montgomery CLOUDY 66 64 93 CALM 30.23S Poughkeepsie PTCLDY 67 64 90 CALM 30.22R Albany PTCLDY 71 66 84 CALM 30.21S $$ NJZ001-105-106-008-010-013-015-019>022-104-280500- NEW JERSEY CITY SKY/WX TMP DP RH WIND PRES REMARKS Newark/Liberty MOCLDY 75 65 70 CALM 30.22S Teterboro PTCLDY 75 61 61 CALM 30.21F Caldwell PTCLDY 71 61 70 CALM 30.23S Morristown PTCLDY 63 61 94 CALM 30.23S Somerville CLEAR 66 63 90 CALM 30.22R Linden FAIR 73 68 83 CALM 30.24S Sussex MOCLDY 66 65 96 CALM 30.24S Abdover N/A 64 60 87 CALM 30.25S Trenton PTCLDY 72 61 68 CALM 30.23S Millville CLEAR 69 69 100 CALM 30.22S Atlantic City PTCLDY 70 68 93 E5 30.22S Wrightstown CLEAR 70 68 94 VRB2 30.20S Toms River PTCLDY 63 60 90 CALM 30.24R Belmar CLEAR 70 68 93 E3 30.24S $$ PAZ047>061-062-071-280500- EASTERN PENNSYLVANIA CITY SKY/WX TMP DP RH WIND PRES REMARKS Philadelphia PTCLDY 74 66 76 E6 30.23S Allentown PTCLDY 70 61 73 NE3 30.23F Scranton CLEAR 69 62 78 E7 30.23F $$ CTZ002-004>006-009-010-012-RIZ004-006-007-MAZ004-011-015-280500- SOUTHERN NEW ENGLAND IN CT CITY SKY/WX TMP DP RH WIND PRES REMARKS Bradley INTL PTCLDY 72 59 63 S7 30.23S Hartford CLEAR 74 62 66 S5 30.23R Danbury PTCLDY 64 60 87 SW3 30.26R Wtrbury/Oxford N/A 66 57 72 CALM 30.27S Bridgeport CLEAR 74 65 73 S3 30.23S Meriden CLEAR 68 62 81 CALM 30.24S New Haven CLEAR 68 62 81 CALM 30.24S Chester FAIR 70 64 83 CALM 30.25F Groton CLEAR 69 64 84 CALM 30.24S Wilimantic PTCLDY 66 63 90 CALM 30.25S IN RI CITY SKY/WX TMP DP RH WIND PRES REMARKS Providence PTCLDY 70 66 87 CALM 30.26R Block Island CLEAR 70 65 84 CALM 30.26S Westerly CLEAR 67 62 84 CALM 30.26S IN MA CITY SKY/WX TMP DP RH WIND PRES REMARKS Boston MOCLDY 73 62 68 S7 30.25S Worcester CLEAR 67 58 72 SW9 30.27S Westfield CLEAR 70 64 81 S6 30.23R Provincetown PTCLDY 61 58 90 CALM 30.27R Nantucket CLEAR 62 60 93 E3 30.25S $$ ANZ330-335-338-340-345-350-353-355-280500- COASTAL MARINE OBSERVATIONS STATION/POSITION TIME SKY/WX TEMP WIND PRES VSBY WAVE AIR SEA DIR/SP/G HT/PER (UTC) (F) (DEG/KT/KT) (MB) (MI) (FT/S) NY HARB ENTRANCE 0250 75 76 130/ 4/ 6 1023.5 2/ 9 20S FIRE ISLAND 0250 75 75 90/ 4/ 6 1023.4 2/ 9 GREAT SOUTH BAY NOT AVBL 23 SSW MONTAUK P 0250 75 77 130/ 6/ 8 1024.2 2/ 9 15 E BARNEGAT LI 0300 77 N/A 3/ 5 HUDSON CANYON 0250 77 78 1022.8 3/ 9 KINGS POINT 0300 75 76 1023.4 EXECUTION ROCKS 0300 76 190/ 2/ 4 N/A CENTRAL LI SOUND NOT AVBL EASTERN LI SOUND 0300 71 70 110/ 2/ 2 N/A ROBBINS REEF 0300 75 160/ 6/ 6 1022.8 $$ >>>>>>>>>>>>>>>>>>>>>>>>>>>> KEY <<<<<<<<<<<<<<<<<<<<<<<<<<< > < > SKY/WX - Sky Condition/Present Weather < > TMP - Temperature in Fahrenheit < > DP - Dew Point in Fahrenheit < > RH - Relative Humidity in Percent < > WIND - Direction (from) and Speed in MPH < > PRES - Mean Sea Level Pressure (inches of Hg) < > WCI - Wind Chill Index < > VSB - VISIBILITY IN MILES < > HX - HEAT INDEX < > TC - TEMPERATURE IN CELSIUS < > VRB - VARIABLE WIND DIRECTION < > < >>>>>>>>>>>>>>>>>>>>>>>>>>>> KEY <<<<<<<<<<<<<<<<<<<<<<<<<<<

USA.gov is the U.S. government's official web portal to all federal, state and local government web resources and services.